SCP
0 0 0 0 0 0 0 0 0 0 0 0 0 0 0 0 0 0 0 0 0 0 0 0 0 0 0 0 0 0 0 0 0 0 0 0 0 0 0 0 0 0 0 0
0 0 0 0 0 0 0 0 0 0 0 0 0 0 0 0 0 0 0 0 0 0 0 0 0 0 0 0 0 0 0 0 0 0 0 0 0 0 0 0 0 0 0 0
0 0 0 0 0 0 0 0 0 0 0 0 0 0 0 0 0 0 0 0 0 0 0 0 0 0 0 0 0 0 0 0 0 0 0 0 0 0 0 0 0 0 0 0
0 0 0 0 0 0 0 0 0 0 0 0 0 0 0 0 0 0 0 0 0 0 0 0 0 0 0 0 0 0 0 0 0 0 0 0 0 0 0 0 0 0 0 0
0 0 0 0 0 0 0 0 0 0 0 0 0 0 0 0 0 0 0 0 0 0 0 0 0 0 0 0 0 0 0 0 0 0 0 0 0 0 0 0 0 0 0 0
0 0 0 0 0 0 0 0 0 0 0 0 0 0 0 0 0 0 0 0 0 0 0 0 0 0 0 0 0 0 0 0 0 0 0 0 0 0 0 0 0 0 0 0
0 0 0 0 0 0 0 0 0 0 0 0 0 0 0 0 0 0 0 0 0 0 0 0 0 0 0 0 0 0 0 0 0 0 0 0 0 0 0 0 0 0 0 0
0 0 0 0 0 0 0 0 0 0 0 0 0 0 0 0 0 0 0 0 0 0 0 0 0 0 0 0 0 0 0 0 0 0 0 0 0 0 0 0 0 0 0 0
0 0 0 0 0 0 0 0 0 0 0 0 0 0 0 0 0 0 0 0 0 0 0 0 0 0 0 0 0 0 0 0 0 0 0 0 0 0 0 0 0 0 0 0
0 0 0 0 0 0 0 0 0 0 0 0 0 0 0 0 0 0 0 0 0 0 0 0 0 0 0 0 0 0 0 0 0 0 0 0 0 0 0 0 0 0 0 0
0 0 0 0 0 0 0 0 0 0 0 0 0 0 0 0 0 0 0 0 0 0 0 0 0 0 0 0 0 0 0 0 0 0 0 0 0 0 0 0 0 0 0 0
0 0 0 0 0 0 0 0 0 0 0 0 0 0 0 0 0 0 0 0 0 0 0 0 0 0 0 0 0 0 0 0 0 0 0 0 0 0 0 0 0 0 0 0
0 0 0 0 0 0 0 0 0 0 0 0 0 0 0 0 0 0 0 0 0 0 0 0 0 0 0 0 0 0 0 0 0 0 0 0 0 0 0 0 0 0 0 0
0 0 0 0 0 0 0 0 0 0 0 0 0 0 0 0 0 0 0 0 0 0 0 0 0 0 0 0 0 0 0 0 0 0 0 0 0 0 0 0 0 0 0 0
0 0 0 0 0 0 0 0 0 0 0 0 0 0 0 0 0 0 0 0 0 0 0 0 0 0 0 0 0 0 0 0 0 0 0 0 0 0 0 0 0 0 0 0
0 0 0 0 0 0 0 0 0 0 0 0 0 0 0 0 0 0 0 0 0 0 0 0 0 0 0 0 0 0 0 0 0 0 0 0 0 0 0 0 0 0 0 0
0 0 0 0 0 0 0 0 0 0 0 0 0 0 0 0 0 0 0 0 0 0 0 0 0 0 0 0 0 0 0 0 0 0 0 0 0 0 0 0 0 0 0 0
0 0 0 0 0 0 0 0 0 0 0 0 0 0 0 0 0 0 0 0 0 0 0 0 0 0 0 0 0 0 0 0 0 0 0 0 0 0 0 0 0 0 0 0
0 0 0 0 0 0 0 0 0 0 0 0 0 0 0 0 0 0 0 0 0 0 0 0 0 0 0 0 0 0 0 0 0 0 0 0 0 0 0 0 0 0 0 0
0 0 0 0 0 0 0 0 0 0 0 0 0 0 0 0 0 0 0 0 0 0 0 0 0 0 0 0 0 0 0 0 0 0 0 0 0 0 0 0 0 0 0 0
0 0 0 0 0 0 0 0 0 0 0 0 0 0 0 0 0 0 0 0 0 0 0 0 0 0 0 0 0 0 0 0 0 0 0 0 0 0 0 0 0 0 0 0
0 0 0 0 0 0 0 0 0 0 0 0 0 0 0 0 0 0 0 0 0 0 0 0 0 0 0 0 0 0 0 0 0 0 0 0 0 0 0 0 0 0 0 0
0 0 0 0 0 0 0 0 0 0 0 0 0 0 0 0 0 0 0 0 0 0 0 0 0 0 0 0 0 0 0 0 0 0 0 0 0 0 0 0 0 0 0 0
0 0 0 0 0 0 0 0 0 0 0 0 0 0 0 0 0 0 0 0 0 0 0 0 0 0 0 0 0 0 0 0 0 0 0 0 0 0 0 0 0 0 0 0
0 0 0 0 0 0 0 0 0 0 0 0 0 0 0 0 0 0 0 0 0 0 0 0 0 0 0 0 0 0 0 0 0 0 0 0 0 0 0 0 0 0 0 0
0 0 0 0 0 0 0 0 0 0 0 0 0 0 0 0 0 0 0 0 0 0 0 0 0 0 0 0 0 0 0 0 0 0 0 0 0 0 0 0 0 0 0 0
0 0 0 0 0 0 0 0 0 0 0 0 0 0 0 0 0 0 0 0 0 0 0 0 0 0 0 0 0 0 0 0 0 0 0 0 0 0 0 0 0 0 0 0
Wind_Speed
7 5 3 6 8 8 10 9 10 11 11 18 8 7 9 9 9 9 7 7 6 4 3 3 4 5 5 5 6 6 6 7 7 8 9 9 10 10 10 11 12 12 13 15
6 3 3 7 10 9 10 8 10 11 19 12 3 1 6 10 12 10 8 8 7 5 4 4 4 4 5 5 5 5 6 6 8 8 9 9 10 10 10 10 11 11 12 13
6 5 5 10 9 11 9 10 11 11 12 2 3 5 8 12 13 10 8 8 8 6 5 4 4 4 4 5 5 5 6 6 7 8 9 9 11 10 10 9 9 10 11 12
3 7 6 8 1 6 7 9 11 11 11 5 5 3 4 7 12 10 10 9 8 6 5 4 3 3 3 4 4 5 6 6 7 7 8 9 9 10 9 7 8 7 9 11
1 3 12 11 3 5 5 11 9 12 13 2 3 1 3 6 9 10 10 8 7 6 5 4 3 2 3 3 4 5 6 6 7 7 7 8 8 9 7 7 7 7 8 9
4 2 9 8 2 3 2 9 7 9 7 7 8 2 7 10 10 8 8 7 7 6 5 4 3 2 2 3 4 5 6 6 6 6 7 7 7 7 6 7 7 9 10 9
5 6 14 7 4 5 3 10 4 7 9 13 13 8 3 11 9 8 8 7 7 6 6 5 3 2 2 3 4 5 6 6 6 6 7 7 6 6 7 8 9 9 9 10
7 6 15 7 10 12 14 4 4 6 8 12 9 5 8 11 12 12 9 8 7 7 6 5 4 3 3 4 5 5 5 6 6 6 6 7 7 7 7 8 8 8 7 9
14 14 7 12 14 11 4 6 7 7 8 10 9 9 11 10 11 11 10 9 7 7 6 5 4 4 4 4 4 5 5 6 6 7 6 6 6 7 7 7 7 8 7 8
8 16 11 12 13 11 9 9 7 7 9 13 11 13 13 12 12 11 11 9 8 8 7 6 5 5 5 4 4 4 5 6 6 6 7 7 6 6 6 7 8 7 6 7
10 12 10 11 14 16 12 9 7 7 10 14 14 13 14 13 13 12 12 9 9 9 8 7 5 5 5 4 3 4 5 5 5 6 6 6 7 5 7 6 10 10 7 7
13 12 9 10 6 6 9 11 12 11 9 9 12 15 15 13 13 12 12 10 9 9 8 7 6 5 5 4 3 4 4 5 4 5 5 6 6 8 11 12 17 17 17 16
14 7 8 9 4 6 8 9 11 14 13 12 10 13 16 12 12 12 12 12 12 11 9 7 6 6 5 4 3 4 4 5 4 5 5 6 6 7 9 11 15 16 19 21
12 4 8 9 9 8 8 6 8 9 9 10 12 12 13 10 11 13 14 13 11 9 8 7 7 7 5 4 4 4 4 5 5 4 4 4 5 6 7 8 9 9 13 19
15 14 15 7 2 4 5 6 8 9 9 10 9 12 15 14 15 15 12 10 9 9 8 8 8 7 5 5 4 4 3 3 4 3 3 3 4 5 5 7 8 8 8 11
9 10 11 11 12 8 8 10 12 14 14 14 13 14 15 14 12 11 11 13 12 13 11 10 9 7 6 5 4 3 3 6 5 3 3 3 4 4 5 6 7 7 8 9
10 12 11 12 15 13 15 15 16 15 16 17 17 15 13 11 11 12 12 13 11 9 9 10 9 7 6 6 4 3 2 3 6 3 3 3 3 3 4 5 5 7 7 11
19 20 16 14 12 14 16 16 14 15 16 16 14 15 16 17 17 16 14 11 8 7 8 9 8 7 6 5 4 3 3 2 2 2 3 3 3 3 4 4 5 6 6 8
20 21 19 16 13 12 13 16 17 15 14 15 18 19 19 17 15 14 13 13 13 13 11 10 14 10 7 8 7 4 3 2 2 2 2 4 4 3 4 4 5 5 6 7
19 18 18 15 12 13 13 12 13 14 15 17 17 16 16 14 14 15 15 14 13 9 8 11 12 9 8 8 9 4 4 3 3 2 2 2 3 3 4 4 5 5 5 6
18 18 17 16 15 14 13 14 16 17 17 19 20 20 18 16 15 15 15 13 11 9 9 15 11 8 8 8 10 5 5 4 3 2 2 2 3 3 3 4 5 6 6 6
19 18 19 16 14 14 13 14 15 17 18 18 17 16 16 16 16 14 13 9 10 17 11 8 8 12 13 13 6 6 5 5 4 3 3 2 2 3 3 4 4 5 5 5
17 16 16 14 14 11 10 12 15 17 19 20 20 20 20 17 16 15 14 10 9 19 13 9 14 19 20 11 7 7 6 5 5 4 3 3 3 2 3 4 4 4 5 5
12 10 8 7 10 12 15 15 14 13 14 14 15 16 16 14 12 10 6 17 20 20 12 15 22 22 20 8 8 7 6 6 5 4 4 3 3 3 3 3 4 4 5 6
6 3 4 9 12 12 12 12 12 11 12 10 11 13 12 11 11 12 10 15 22 21 12 16 23 23 13 8 9 8 7 7 6 5 5 4 4 3 3 3 3 4 4 5
3 4 6 8 7 6 8 11 12 12 12 12 12 12 11 8 8 10 11 13 17 20 14 10 12 16 10 9 9 9 7 7 7 6 6 5 5 4 3 3 4 4 4 5
3 3 4 5 6 7 8 10 12 14 14 14 14 13 13 12 11 12 13 12 13 13 11 10 10 10 10 9 9 8 7 7 6 5 5 5 4 4 4 4 4 4 4 5
Wind_Direction
258 258 236 241 224 191 195 204 215 246 256 275 284 234 204 174 163 162 170 178 179 183 222 260 282 294 301 307 315 324 328 328 326 324 323 324 328 329 331 337 340 337 338 340
291 214 257 264 240 211 218 220 237 266 275 273 312 134 155 165 172 178 184 185 182 189 210 239 264 286 301 308 314 323 326 324 325 328 329 330 330 332 335 337 336 336 337 337
284 300 318 277 234 186 206 210 198 228 253 229 241 210 193 185 184 184 181 180 181 190 208 228 247 269 288 301 311 323 323 322 325 327 329 330 333 335 333 329 330 333 332 335
302 350 268 249 114 174 212 243 215 240 260 238 238 212 202 183 181 179 177 176 179 183 198 216 233 261 285 305 319 322 321 322 321 324 324 324 330 331 325 318 324 324 323 330
106 307 284 295 234 179 204 278 223 227 255 166 105 62 265 205 182 177 172 168 172 178 188 198 223 257 294 314 321 321 319 318 316 316 318 323 328 325 317 317 316 318 322 326
139 218 257 258 151 164 98 285 250 205 218 156 146 206 251 180 163 155 153 153 161 170 179 194 214 232 274 304 312 312 310 308 307 311 318 316 318 315 313 315 319 326 327 325
174 228 263 251 151 145 188 252 233 191 187 169 191 208 180 148 148 150 149 155 161 171 185 197 199 207 251 283 289 294 302 305 308 313 312 307 315 310 315 320 323 318 316 316
160 201 254 196 148 189 219 223 191 197 188 188 191 141 143 153 154 155 156 159 167 176 192 196 193 199 244 267 278 296 304 307 309 310 311 322 317 309 312 314 314 310 307 312
192 216 234 179 203 220 207 213 211 202 195 170 162 171 164 165 163 165 167 172 174 180 188 199 199 201 237 260 288 305 310 309 307 310 309 310 308 306 312 310 309 310 314 320
243 260 245 225 240 247 223 224 219 195 176 169 174 173 169 168 170 171 174 179 178 179 190 204 208 213 229 262 289 301 305 305 305 308 311 314 315 315 313 312 311 313 319 320
249 269 289 259 230 238 236 225 213 189 181 181 171 171 172 173 176 178 179 179 183 189 197 203 202 219 234 250 274 292 299 301 308 312 309 313 318 312 315 311 327 341 331 321
231 227 211 252 227 205 207 212 199 182 182 182 178 176 172 176 176 176 177 177 185 193 198 199 200 219 231 238 249 277 298 307 308 308 314 320 318 322 331 338 339 345 346 344
232 239 220 252 242 190 207 211 191 187 182 181 179 174 171 170 174 174 176 181 190 194 195 192 199 217 225 228 245 262 279 293 297 310 317 322 325 329 330 335 341 346 348 347
242 255 278 253 233 210 205 194 176 183 182 175 168 168 169 160 166 176 183 187 186 184 186 189 200 218 217 216 239 262 276 293 305 298 306 313 319 325 331 333 334 335 340 344
232 218 231 254 229 178 164 150 165 183 177 170 165 168 169 171 178 184 179 172 173 182 191 194 207 219 205 206 229 253 273 278 284 293 307 310 314 323 330 333 333 332 332 336
221 221 234 245 240 202 177 184 193 197 188 180 178 181 181 177 173 168 167 169 176 193 197 199 211 209 190 198 222 245 265 299 318 328 326 320 315 323 332 334 335 335 336 331
212 231 223 233 231 210 203 202 204 197 188 188 187 177 166 158 160 170 177 183 189 194 192 198 206 195 188 192 203 224 246 289 318 332 319 308 307 324 327 329 331 333 331 332
221 234 227 222 221 209 209 207 205 195 191 189 172 165 170 175 181 182 179 174 179 195 205 201 194 185 188 191 198 208 219 242 272 291 299 301 317 328 321 320 324 327 328 337
230 237 241 233 220 200 200 202 202 196 182 170 172 179 183 185 180 171 165 170 185 204 211 198 201 194 193 203 200 190 197 225 254 280 294 315 336 322 316 316 320 321 326 341
237 237 240 238 215 202 202 189 184 184 179 174 176 179 182 181 171 166 170 185 198 196 172 180 193 190 189 201 199 174 189 207 223 251 282 298 307 311 315 318 322 321 328 339
235 235 233 231 220 205 193 180 178 182 178 177 181 184 182 176 171 168 176 196 200 173 171 187 184 184 183 192 197 176 186 196 204 213 244 279 297 308 316 319 325 328 335 338
229 230 230 224 209 200 187 179 179 176 175 181 184 178 173 172 175 180 194 195 172 179 178 182 178 186 189 190 175 174 184 190 195 200 216 241 269 293 306 315 317 322 327 324
229 226 223 210 198 182 166 176 179 177 180 183 183 182 181 178 177 181 193 190 164 179 176 182 188 191 192 185 172 179 184 188 193 199 207 220 239 262 284 299 304 310 310 311
250 239 218 172 149 159 181 187 182 181 181 183 186 183 177 173 184 195 172 170 177 181 179 187 190 193 191 174 173 180 184 188 190 195 203 213 225 241 261 278 289 295 300 308
273 241 168 167 184 195 189 169 166 168 172 181 184 183 185 180 177 179 167 168 177 178 176 188 190 193 186 170 177 181 184 189 190 190 199 206 216 228 245 262 276 289 297 300
228 212 206 207 206 187 170 171 178 179 178 181 184 184 184 175 159 160 165 169 175 178 173 177 183 190 179 176 180 181 183 195 206 197 191 198 210 219 232 249 270 277 287 292
241 219 205 207 204 188 181 184 185 185 184 182 179 178 177 174 167 165 167 169 174 177 172 175 178 179 176 178 178 179 181 185 190 191 191 198 204 212 220 235 251 267 280 288